Flag for Germany Weather past 2 weeks in Warburg, North Rhine-Westphalia, Germany

Now
54 °F

Fog.


Feels Like: 53 °F
Forecast: 48 / 68 °F
Wind: 5 mph from Southeast

Location: Kassel / Calden

Current Time: Oct 1, 2014 at 10:17:15 AM

Latest Report: Oct 1, 2014 at 9:50 AM


Visibility: 0 mi

Pressure: 30.33 "Hg

Humidity: 100%

Dew point: 54 °F

Location of WarburgLocation

Historic Weather in Warburg — Graph

°F

Warburg temperature yesterday

Maximum temperature yesterday: 68 °F (at 12:50 PM)
Minimum temperature yesterday: 57 °F (at 6:50 AM)
Average temperature yesterday: 63 °F

Past Weeks' High & Low Weather Summary

 TemperatureHumidityPressure
High73 °F (Sep 16, 3:50 PM)100% (Sep 16, 9:20 AM)30.39 "Hg (Sep 16, 9:20 AM)
Low43 °F (Sep 22, 12:50 PM)54% (Sep 26, 6:20 AM)29.83 "Hg (Sep 24, 5:20 PM)
Average59 °F82%30.08 "Hg
* Reported Sep 16 9:20 AM — Oct 1 9:20 AM, Warburg, Weather by CustomWeather, © 2014

Note: Actual official high and low records may vary slightly from our data, if they occured in-between our weather recording intervals... More about our weather records

Advertising

Warburg weather history for previous 24 hours

 ConditionsComfort  
Time TempWeatherWind HumidityBarometerVisibility
9:20 AM
Oct 1
54 °FFog.3 mph100%30.33 "Hg1 mi
8:50 AM54 °FFog.5 mph100%30.33 "Hg0 mi
8:20 AM54 °FFog.1 mph94%30.33 "Hg0 mi
7:50 AM52 °FFog.3 mph100%30.30 "Hg0 mi
7:20 AM52 °FFog.3 mph100%30.30 "Hg0 mi
6:50 AM52 °FFog.3 mph100%30.30 "Hg0 mi
6:20 AM52 °FFog.3 mph100%30.30 "Hg1 mi
5:50 AM52 °FFog.2 mph100%30.30 "Hg1 mi
9:50 PM
Sep 30
59 °FPartly cloudy.3 mph94%30.30 "Hg6 mi
9:20 PM59 °FMostly cloudy.7 mph94%30.30 "Hg5 mi
8:50 PM61 °FPartly cloudy.8 mph88%30.30 "HgN/A
8:20 PM59 °FPassing clouds.1 mph88%30.30 "Hg6 mi
7:50 PM59 °FScattered clouds.5 mph94%30.30 "Hg5 mi
7:20 PM63 °FBroken clouds.2 mph88%30.27 "HgN/A
6:50 PM64 °FBroken clouds.1 mph83%30.27 "HgN/A
6:20 PM64 °FScattered clouds.3 mph83%30.27 "HgN/A
5:50 PM64 °FScattered clouds.5 mph83%30.27 "HgN/A
5:20 PM66 °FScattered clouds.7 mph83%30.27 "HgN/A
4:50 PM68 °FScattered clouds.9 mph69%30.27 "HgN/A
4:20 PM66 °FBroken clouds.3 mph78%30.27 "HgN/A
3:50 PM66 °FBroken clouds.3 mph83%30.27 "HgN/A
3:20 PM64 °FBroken clouds.6 mph88%30.27 "HgN/A
2:50 PM66 °FLight rain. Partly sunny.5 mph78%30.27 "HgN/A
2:20 PM68 °FBroken clouds.6 mph73%30.27 "HgN/A
1:50 PM68 °FPartly sunny.5 mph69%30.27 "HgN/A
1:20 PM68 °FBroken clouds.3 mph69%30.27 "HgN/A
12:50 PM68 °FPartly sunny.5 mph69%30.27 "HgN/A
12:20 PM64 °FBroken clouds.7 mph83%30.27 "HgN/A
11:50 AM64 °FPartly sunny.3 mph78%30.27 "HgN/A
11:20 AM63 °FPartly sunny.5 mph83%30.27 "HgN/A
10:50 AM63 °FPartly sunny.3 mph83%30.27 "HgN/A
10:20 AM63 °FOvercast.5 mph83%30.27 "HgN/A
Weather by CustomWeather, © 2014

See weather overviewHow to use our weather pages